Weather History for Milwaukee, WI

Change the Weather History Date:

Friday, August 23, 2013

  Actual Average Record
Temperature  
Mean Temperature 67 °F 70 °F  
Max Temperature 76 °F 78 °F 98 °F (1947)
Min Temperature 58 °F 63 °F 42 °F (1875)
Degree Days  
Heating Degree Days 0 1  
Month to date heating degree days 8 2  
Since 1 June heating degree days 109 97  
Since 1 July heating degree days 22 13  
Cooling Degree Days 2 6  
Month to date cooling degree days 104 152  
Year to date cooling degree days 483 524  
Since 1 June cooling degree days 444 494  
Growing Degree Days 16 (Base 50)    
Moisture  
Dew Point 60 °F    
Average Humidity 79    
Maximum Humidity 93    
Minimum Humidity 64    
Precipitation  
Precipitation 0.00 in 0.11 in 2.10 in (1898)
Month to date precipitation 3.27 3.03  
Year to date precipitation 30.13 23.24  
Snow  
Snow 0.00 in 0.00 in 0.00 in ()
Month to date snowfall 0.0 0.0  
Since 1 June snowfall 0.0 0.0  
Since 1 July snowfall 0.0 0.0  
Snow Depth 0.00 in    
Sea Level Pressure  
Sea Level Pressure 30.17 in    
Wind  
Wind Speed 4 mph (NE)    
Max Wind Speed 10 mph    
Max Gust Speed 15 mph    
Visibility 10 miles    
Events      
T = Trace of Precipitation, MM = Missing Value Source: NWS Daily Summary

Daily Weather History Graph

Daily Weather History Graph

Search for Another Location

Airport:

Trip Planner

Search our weather history database for the weather conditions in past years. The results will help you decide how hot, cold, wet, or windy it might be!

Date:

Astronomy

Aug. 23, 2013 Rise Set
Actual Time 6:06 AM CDT 7:40 PM CDT
Civil Twilight 5:36 AM CDT 8:10 PM CDT
Nautical Twilight 5:00 AM CDT 8:46 PM CDT
Astronomical Twilight 4:21 AM CDT 9:25 PM CDT
Moon 8:52 PM CDT (8/23) 9:07 AM CDT (8/23)
Length of Visible Light 14h 33m
Length of Day
13h 34m
Waning Gibbous, 91% of the Moon is Illuminated
Aug 23
Waning Gibbous
Aug 28
Last Quarter
Sep 5
New
Sep 12
First Quarter
Sep 19
Full

Hourly Weather History & Observations

Time (CDT) Temp. Dew Point Humidity Pressure Visibility Wind Dir Wind Speed Gust Speed Precip Events Conditions
12:52 AM 64.0 °F 55.9 °F 75% 30.13 in 10.0 mi Calm Calm - N/A   Clear
1:52 AM 62.1 °F 55.9 °F 80% 30.13 in 10.0 mi Calm Calm - N/A   Clear
2:52 AM 59.0 °F 55.0 °F 87% 30.13 in 10.0 mi Calm Calm - N/A   Clear
3:52 AM 60.1 °F 55.9 °F 86% 30.13 in 10.0 mi WNW 3.5 mph - N/A   Clear
4:52 AM 60.1 °F 55.9 °F 86% 30.14 in 10.0 mi WNW 3.5 mph - N/A   Clear
5:52 AM 57.9 °F 55.9 °F 93% 30.16 in 10.0 mi NW 3.5 mph - N/A   Clear
6:52 AM 61.0 °F 57.9 °F 90% 30.17 in 10.0 mi NW 3.5 mph - N/A   Clear
7:52 AM 66.9 °F 60.1 °F 79% 30.18 in 10.0 mi Calm Calm - N/A   Clear
8:52 AM 72.0 °F 62.1 °F 71% 30.19 in 10.0 mi NE 5.8 mph - N/A   Clear
9:52 AM 73.0 °F 63.0 °F 71% 30.20 in 10.0 mi ENE 4.6 mph - N/A   Clear
10:52 AM 73.9 °F 63.0 °F 68% 30.20 in 10.0 mi ENE 6.9 mph - N/A   Clear
11:52 AM 73.0 °F 62.1 °F 68% 30.19 in 10.0 mi ENE 3.5 mph - N/A   Clear
12:52 PM 75.0 °F 63.0 °F 66% 30.19 in 10.0 mi ENE 4.6 mph - N/A   Clear
1:52 PM 75.0 °F 62.1 °F 64% 30.19 in 10.0 mi NE 6.9 mph - N/A   Partly Cloudy
2:52 PM 75.0 °F 63.0 °F 66% 30.18 in 10.0 mi East 8.1 mph - N/A   Scattered Clouds
3:52 PM 75.0 °F 63.0 °F 66% 30.17 in 10.0 mi ENE 10.4 mph - N/A   Scattered Clouds
4:52 PM 73.0 °F 63.0 °F 71% 30.17 in 10.0 mi East 8.1 mph - N/A   Partly Cloudy
5:52 PM 72.0 °F 61.0 °F 68% 30.17 in 10.0 mi East 5.8 mph - N/A   Scattered Clouds
6:52 PM 70.0 °F 61.0 °F 73% 30.17 in 10.0 mi ENE 4.6 mph - N/A   Partly Cloudy
7:52 PM 68.0 °F 60.1 °F 76% 30.16 in 10.0 mi ENE 3.5 mph - N/A   Partly Cloudy
8:52 PM 66.0 °F 59.0 °F 78% 30.18 in 10.0 mi Calm Calm - N/A   Partly Cloudy
9:52 PM 64.0 °F 59.0 °F 84% 30.19 in 10.0 mi Calm Calm - N/A   Partly Cloudy
10:52 PM 63.0 °F 59.0 °F 87% 30.19 in 10.0 mi Calm Calm - N/A   Clear
11:52 PM 62.1 °F 60.1 °F 93% 30.19 in 10.0 mi Calm Calm - N/A   Clear